DW6599 Weather Reports


time (UTC)temp
C
wind
direction
speed
KPH
gust
KPH
rain 1hr
cm
rain 24hr
cm
rain mn
cm
humidity
%
barometer
mb
20260509201854 31 110 4.8 4.8 0.00 0.00 0.00 39 1008.3
20260509201355 31 110 4.8 4.8 0.00 0.00 0.00 39 1008.4
20260509200854 31 110 4.8 4.8 0.00 0.00 0.00 38 1008.5
20260509200355 31 110 4.8 4.8 0.00 0.00 0.00 38 1008.5
20260509195854 31 110 4.8 4.8 0.00 0.00 0.00 40 1008.6
20260509195354 31 110 4.8 4.8 0.00 0.00 0.00 38 1008.6
20260509194854 31 110 4.8 11.3 0.00 0.00 0.00 38 1008.6
20260509193854 30 20 11.3 11.3 0.00 0.00 0.00 41 1008.7
20260509193355 30 20 11.3 11.3 0.00 0.00 0.00 37 1008.8
20260509192854 30 50 11.3 11.3 0.00 0.00 0.00 38 1008.9
20260509192354 30 50 11.3 11.3 0.00 0.00 0.00 40 1008.8
20260509191354 30 50 11.3 11.3 0.00 0.00 0.00 41 1008.9
20260509190854 30 50 11.3 11.3 0.00 0.00 0.00 40 1008.9
20260509190354 30 50 11.3 11.3 0.00 0.00 0.00 39 1009.0
20260509185854 30 60 8.0 8.0 0.00 0.00 0.00 42 1009.0
20260509185354 30 60 8.0 8.0 0.00 0.00 0.00 42 1009.0
20260509184854 30 60 8.0 8.0 0.00 0.00 0.00 45 1009.1
20260509184354 30 20 8.0 8.0 0.00 0.00 0.00 43 1009.1
20260509183854 30 20 8.0 8.0 0.00 0.00 0.00 46 1009.2
20260509183355 30 20 8.0 9.7 0.00 0.00 0.00 47 1009.3
20260509182854 30 300 9.7 9.7 0.00 0.00 0.00 47 1009.3
20260509182355 30 300 9.7 9.7 0.00 0.00 0.00 51 1009.3
20260509181854 30 300 9.7 9.7 0.00 0.00 0.00 51 1009.4
20260509181354 30 300 9.7 9.7 0.00 0.00 0.00 48 1009.5
20260509180355 30 300 9.7 9.7 0.00 0.00 0.00 50 1009.6
20260509175854 29 300 9.7 9.7 0.00 0.00 0.00 49 1009.8
20260509175355 30 300 9.7 9.7 0.00 0.00 0.00 51 1009.9
20260509174854 30 300 9.7 9.7 0.00 0.00 0.00 54 1009.9
20260509174354 30 300 9.7 9.7 0.00 0.00 0.00 51 1010.0
20260509173854 30 300 9.7 9.7 0.00 0.00 0.00 55 1010.1
20260509173355 29 300 9.7 9.7 0.00 0.00 0.00 55 1010.2
20260509172854 29 300 9.7 9.7 0.00 0.00 0.00 51 1010.3
20260509172354 29 300 9.7 9.7 0.00 0.00 0.00 52 1010.4
20260509171854 29 300 9.7 9.7 0.00 0.00 0.00 55 1010.4
20260509171354 29 300 9.7 9.7 0.00 0.00 0.00 57 1010.4
20260509170854 28 300 9.7 9.7 0.00 0.00 0.00 60 1010.4
20260509170355 28 300 9.7 9.7 0.00 0.00 0.00 60 1010.6
20260509165854 28 70 8.0 8.0 0.00 0.00 0.00 59 1010.6
20260509165354 28 70 8.0 8.0 0.00 0.00 0.00 58 1010.6
20260509164854 28 70 8.0 8.0 0.00 0.00 0.00 57 1010.7
20260509164354 27 70 8.0 8.0 0.00 0.00 0.00 59 1010.8
20260509163854 27 70 8.0 8.0 0.00 0.00 0.00 64 1010.8
20260509163355 27 70 8.0 8.0 0.00 0.00 0.00 62 1010.8
20260509162854 27 70 8.0 8.0 0.00 0.00 0.00 60 1010.8
20260509162354 27 70 8.0 8.0 0.00 0.00 0.00 65 1010.8
20260509161855 27 70 8.0 8.0 0.00 0.00 0.00 65 1010.8
20260509161355 26 70 8.0 8.0 0.00 0.00 0.00 65 1010.8
20260509160855 26 70 8.0 8.0 0.00 0.00 0.00 67 1010.7
20260509160354 26 70 8.0 8.0 0.00 0.00 0.00 68 1010.8
20260509155854 26 100 8.0 8.0 0.00 0.00 0.00 67 1010.8
20260509154854 26 100 8.0 8.0 0.00 0.00 0.00 67 1010.8
20260509154354 25 30 4.8 4.8 0.00 0.00 0.00 71 1010.7
20260509153854 25 30 4.8 4.8 0.00 0.00 0.00 69 1010.7
20260509152355 25 10 4.8 4.8 0.00 0.00 0.00 71 1010.6
20260509151856 25 10 4.8 4.8 0.00 0.00 0.00 72 1010.6
20260509151354 25 10 4.8 4.8 0.00 0.00 0.00 74 1010.7
20260509150855 24 10 4.8 4.8 0.00 0.00 0.00 75 1010.7
20260509150355 23 10 4.8 4.8 0.00 0.00 0.00 76 1010.8
20260509145855 23 10 4.8 4.8 0.00 0.00 0.00 79 1010.9
20260509144355 24 10 4.8 4.8 0.00 0.00 0.00 64 1010.9
20260509143855 24 10 4.8 4.8 0.00 0.00 0.00 64 1010.9
20260509142854 24 10 4.8 4.8 0.00 0.00 0.00 64 1010.9
20260509142355 24 10 4.8 4.8 0.00 0.00 0.00 64 1010.9
20260509141855 24 10 4.8 4.8 0.00 0.00 0.00 64 1010.9
20260509141355 24 10 4.8 4.8 0.00 0.00 0.00 64 1011.0
20260509140854 24 10 4.8 4.8 0.00 0.00 0.00 64 1011.1
20260509140354 24 10 4.8 4.8 0.00 0.00 0.00 64 1011.1
20260509135855 24 10 4.8 4.8 0.00 0.00 0.00 64 1011.1
20260509135354 24 10 4.8 4.8 0.00 0.00 0.00 64 1011.0
20260509133854 24 10 4.8 4.8 0.00 0.00 0.00 64 1011.2
20260509133355 24 10 4.8 4.8 0.00 0.00 0.00 64 1011.2
20260509132855 24 10 4.8 4.8 0.00 0.00 0.00 64 1011.2
20260509132354 24 10 4.8 4.8 0.00 0.00 0.00 64 1011.1
20260509131854 24 10 4.8 4.8 0.00 0.00 0.00 64 1011.2
20260509131354 24 10 4.8 4.8 0.00 0.00 0.00 64 1011.2
20260509130854 24 10 4.8 4.8 0.00 0.00 0.00 64 1011.1
20260509130354 24 10 4.8 4.8 0.00 0.00 0.00 64 1011.1
20260509125855 24 10 4.8 4.8 0.00 0.00 0.00 64 1011.0
20260509125354 24 10 4.8 4.8 0.00 0.00 0.00 64 1011.1
20260509124854 24 10 4.8 4.8 0.00 0.00 0.00 64 1010.9
20260509124354 24 10 4.8 4.8 0.00 0.00 0.00 64 1010.8
20260509123355 24 10 4.8 4.8 0.00 0.00 0.00 64 1010.7
20260509122854 24 10 4.8 4.8 0.00 0.00 0.00 64 1010.5
20260509122354 24 10 4.8 4.8 0.00 0.00 0.00 64 1010.5
20260509121854 24 10 4.8 4.8 0.00 0.00 0.00 64 1010.4
20260509121355 24 10 4.8 4.8 0.00 0.00 0.00 64 1010.2
20260509120354 24 10 4.8 4.8 0.00 0.00 0.00 64 1010.0
20260509114854 24 10 4.8 4.8 0.00 0.00 0.00 64 1010.0
20260509114355 24 10 4.8 4.8 0.00 0.00 0.00 64 1010.0
20260509113855 24 10 4.8 4.8 0.00 0.00 0.00 64 1009.8
20260509112855 24 10 4.8 4.8 0.00 0.00 0.00 64 1009.6
20260509112355 24 10 4.8 4.8 0.00 0.00 0.00 64 1009.6
20260509111854 24 10 4.8 4.8 0.00 0.00 0.00 64 1009.5
20260509111355 24 10 4.8 4.8 0.00 0.00 0.00 64 1009.4
20260509110854 24 10 4.8 4.8 0.00 0.00 0.00 64 1009.4
20260509110355 24 10 4.8 4.8 0.00 0.00 0.00 64 1009.3
20260509105854 24 10 4.8 4.8 0.00 0.00 0.00 64 1009.4
20260509105355 24 10 4.8 4.8 0.00 0.00 0.00 64 1009.4
20260509104854 24 10 4.8 4.8 0.00 0.00 0.00 64 1009.5
20260509104355 24 10 4.8 4.8 0.00 0.00 0.00 64 1009.4
20260509103854 24 10 4.8 4.8 0.00 0.00 0.00 64 1009.4
20260509103355 24 10 4.8 4.8 0.00 0.00 0.00 64 1009.4
20260509102855 24 10 4.8 4.8 0.00 0.00 0.00 64 1009.3
20260509102355 24 10 4.8 4.8 0.00 0.00 0.00 64 1009.3
20260509101855 24 10 4.8 4.8 0.00 0.00 0.00 64 1009.3
20260509101355 24 10 4.8 4.8 0.00 0.00 0.00 64 1009.3
20260509100855 24 10 4.8 4.8 0.00 0.00 0.00 64 1009.3
20260509095855 24 20 4.8 4.8 0.00 0.00 0.00 64 1009.4
20260509095355 24 20 4.8 4.8 0.00 0.00 0.00 64 1009.4
20260509094355 24 20 8.0 8.0 0.00 0.00 0.00 64 1009.2
20260509093854 24 20 8.0 8.0 0.00 0.00 0.00 64 1009.2
20260509093355 24 20 8.0 8.0 0.00 0.00 0.00 64 1009.3
20260509092855 24 30 8.0 8.0 0.00 0.00 0.00 64 1009.3
20260509092355 24 30 8.0 8.0 0.00 0.00 0.00 64 1009.4
20260509091855 24 30 8.0 8.0 0.00 0.00 0.00 64 1009.4
20260509091355 24 30 8.0 8.0 0.00 0.00 0.00 64 1009.5
20260509090855 24 30 8.0 8.0 0.00 0.00 0.00 64 1009.5
20260509090355 24 30 8.0 8.0 0.00 0.00 0.00 64 1009.5
20260509085855 24 10 8.0 8.0 0.00 0.00 0.00 64 1009.5
20260509085355 24 10 8.0 8.0 0.00 0.00 0.00 64 1009.3
20260509084355 24 30 8.0 8.0 0.00 0.00 0.00 64 1009.5
20260509083855 24 30 8.0 8.0 0.00 0.00 0.00 64 1009.6
20260509083354 24 30 8.0 8.0 0.00 0.00 0.00 64 1009.6
20260509082854 24 30 8.0 8.0 0.00 0.00 0.00 64 1009.7
20260509082354 24 30 8.0 8.0 0.00 0.00 0.00 64 1009.7
20260509081854 24 30 8.0 8.0 0.00 0.00 0.00 64 1009.8
20260509081355 24 30 8.0 8.0 0.00 0.00 0.00 64 1009.7
20260509080855 24 30 8.0 8.0 0.00 0.00 0.00 64 1009.9
20260509080354 24 30 8.0 8.0 0.00 0.00 0.00 64 1009.9
20260509075855 24 30 8.0 8.0 0.00 0.00 0.00 64 1009.9
20260509075355 24 30 8.0 8.0 0.00 0.00 0.00 64 1009.9
20260509074854 24 30 8.0 8.0 0.00 0.00 0.00 64 1010.0
20260509074354 24 30 8.0 8.0 0.00 0.00 0.00 64 1010.0
20260509073355 24 30 8.0 8.0 0.00 0.00 0.00 64 1010.1
20260509072855 24 180 8.0 8.0 0.00 0.00 0.00 64 1010.0
20260509072355 24 180 8.0 8.0 0.00 0.00 0.00 64 1010.0
20260509071855 24 180 8.0 8.0 0.00 0.00 0.00 64 1010.0
20260509071355 24 180 8.0 8.0 0.00 0.00 0.00 64 1010.0
20260509070855 24 180 8.0 8.0 0.00 0.00 0.00 64 1010.0
20260509065855 24 180 8.0 8.0 0.00 0.00 0.00 64 1010.0
20260509065354 24 180 8.0 8.0 0.00 0.00 0.00 64 1010.0
20260509064855 24 180 8.0 8.0 0.00 0.00 0.00 64 1009.9
20260509064355 24 180 8.0 8.0 0.00 0.00 0.00 64 1009.8
20260509063855 24 180 8.0 8.0 0.00 0.00 0.00 64 1009.7
20260509063355 24 180 8.0 8.0 0.00 0.00 0.00 64 1009.7
20260509062355 24 210 8.0 8.0 0.00 0.00 0.00 64 1009.9
20260509061856 24 210 8.0 8.0 0.00 0.00 0.00 64 1009.9
20260509061354 24 210 8.0 8.0 0.00 0.00 0.00 64 1009.7
20260509060855 24 210 8.0 8.0 0.00 0.00 0.00 64 1009.8
20260509060355 24 210 8.0 8.0 0.00 0.00 0.00 64 1009.7
20260509055855 24 70 8.0 8.0 0.00 0.00 0.00 64 1009.9
20260509055355 24 70 8.0 8.0 0.00 0.00 0.00 64 1010.0
20260509054855 24 70 8.0 8.0 0.00 0.00 0.00 64 1010.0
20260509054355 24 70 8.0 8.0 0.00 0.00 0.00 64 1010.0
20260509053855 24 70 8.0 8.0 0.00 0.00 0.00 64 1010.0
20260509053355 24 70 8.0 8.0 0.00 0.00 0.00 64 1010.0
20260509052355 24 190 8.0 8.0 0.00 0.00 0.00 64 1009.8
20260509051355 24 190 8.0 8.0 0.00 0.00 0.00 64 1009.8
20260509050355 24 190 8.0 9.7 0.00 0.00 0.00 64 1009.9
20260509045854 24 200 9.7 9.7 0.00 0.00 0.00 64 1010.1
20260509044355 24 180 11.3 11.3 0.00 0.00 0.00 64 1010.1
20260509043855 24 180 11.3 11.3 0.00 0.00 0.00 64 1010.0
20260509043356 24 180 11.3 12.9 0.00 0.00 0.00 64 1010.1
20260509042356 24 190 12.9 12.9 0.00 0.00 0.00 64 1009.9
20260509041856 24 190 12.9 12.9 0.00 0.00 0.00 64 1009.7
20260509041354 24 190 12.9 12.9 0.00 0.00 0.00 64 1009.2
20260509040856 24 190 12.9 12.9 0.00 0.00 0.00 64 1009.0
20260509035355 24 320 8.0 8.0 0.00 0.00 0.00 64 1010.0
20260509033855 24 300 8.0 8.0 0.00 0.00 0.00 64 1010.7
20260509033354 24 300 8.0 9.7 0.00 0.00 0.00 64 1010.8
20260509032856 24 140 9.7 9.7 0.00 0.00 0.00 64 1010.7
20260509031855 24 140 9.7 9.7 0.00 0.00 0.00 64 1010.3
20260509031355 24 140 9.7 9.7 0.00 0.00 0.00 64 1010.4
20260509030855 24 140 9.7 9.7 0.00 0.00 0.00 64 1009.9
20260509030355 24 140 9.7 9.7 0.00 0.00 0.00 64 1009.9
20260509025856 24 100 4.8 4.8 0.00 0.00 0.00 64 1009.7
20260509025355 24 100 4.8 4.8 0.00 0.00 0.00 64 1009.8
20260509024855 24 100 4.8 9.7 0.00 0.00 0.00 64 1009.8
20260509024355 24 140 9.7 9.7 0.00 0.00 0.00 64 1009.8
20260509023855 24 140 9.7 9.7 0.00 0.00 0.00 64 1009.9
20260509023356 24 140 9.7 14.5 0.00 0.00 0.00 64 1010.0
20260509022355 24 160 14.5 14.5 0.00 0.00 0.00 64 1009.8
20260509021855 24 160 14.5 14.5 0.00 0.00 0.00 64 1009.7
20260509021355 24 160 14.5 14.5 0.00 0.00 0.00 64 1009.4
20260509020855 24 160 14.5 14.5 0.00 0.00 0.00 64 1009.3
20260509020355 24 160 14.5 14.5 0.00 0.00 0.00 64 1009.2
20260509015856 24 170 11.3 11.3 0.00 0.00 0.00 64 1008.8
20260509015355 24 170 11.3 11.3 0.00 0.00 0.00 64 1008.4
20260509014855 24 170 11.3 11.3 0.00 0.00 0.00 64 1008.3
20260509014355 24 170 9.7 9.7 0.00 0.00 0.00 64 1008.4
20260509013855 24 170 9.7 9.7 0.00 0.00 0.00 64 1008.6
20260509013355 24 170 9.7 11.3 0.00 0.00 0.00 64 1008.4
20260509012855 24 170 11.3 11.3 0.00 0.00 0.00 64 1008.3
20260509010855 24 170 11.3 11.3 0.00 0.00 0.00 64 1007.9
20260509010355 24 170 11.3 11.3 0.00 0.00 0.00 64 1007.8
20260509005855 24 130 11.3 11.3 0.00 0.00 0.00 64 1008.0
20260509004856 24 130 11.3 16.1 0.00 0.00 0.00 64 1007.8
20260509004355 24 160 16.1 16.1 0.00 0.00 0.00 64 1007.5
20260509003855 24 160 16.1 16.1 0.00 0.00 0.00 64 1007.7
20260509003355 24 160 16.1 16.1 0.00 0.00 0.00 64 1007.5
20260509002855 24 160 12.9 12.9 0.00 0.00 0.00 64 1007.4
20260509002355 24 160 12.9 12.9 0.00 0.00 0.00 63 1007.2
20260509001856 25 160 12.9 12.9 0.00 0.00 0.00 63 1007.2
20260509001356 25 160 12.9 12.9 0.00 0.00 0.00 61 1007.1
20260509000355 25 160 12.9 12.9 0.00 0.00 0.00 59 1007.2
20260508235355 26 160 11.3 11.3 0.00 0.00 0.00 57 1007.5
20260508234855 26 160 11.3 11.3 0.00 0.00 0.00 57 1007.5
20260508234355 26 170 11.3 11.3 0.00 0.00 0.00 56 1007.5
20260508233855 26 170 11.3 11.3 0.00 0.00 0.00 56 1007.4
20260508233355 26 170 11.3 14.5 0.00 0.00 0.00 56 1007.2
20260508232355 26 150 14.5 14.5 0.00 0.00 0.00 56 1007.3
20260508231855 26 150 14.5 14.5 0.00 0.00 0.00 55 1007.3
20260508230855 26 150 14.5 14.5 0.00 0.00 0.00 56 1007.2
20260508230355 26 150 14.5 14.5 0.00 0.00 0.00 54 1007.3
20260508225855 26 140 14.5 14.5 0.00 0.00 0.00 55 1007.2
20260508225356 27 140 14.5 14.5 0.00 0.00 0.00 54 1007.2
20260508224855 27 140 14.5 14.5 0.00 0.00 0.00 54 1007.3
20260508223855 27 160 14.5 14.5 0.00 0.00 0.00 52 1007.5
20260508223355 27 160 14.5 14.5 0.00 0.00 0.00 52 1007.5
20260508222855 27 160 14.5 14.5 0.00 0.00 0.00 52 1007.5
20260508222355 27 160 14.5 14.5 0.00 0.00 0.00 52 1007.6
20260508221855 27 160 14.5 14.5 0.00 0.00 0.00 52 1007.6
20260508221356 27 160 14.5 14.5 0.00 0.00 0.00 53 1007.6
20260508220856 27 160 14.5 14.5 0.00 0.00 0.00 53 1007.6
20260508215855 27 170 16.1 16.1 0.00 0.00 0.00 52 1007.8
20260508215355 27 170 16.1 16.1 0.00 0.00 0.00 52 1007.9
20260508214855 27 170 16.1 32.2 0.00 0.00 0.00 54 1007.9
20260508213855 26 170 14.5 32.2 0.00 0.00 0.00 52 1008.0
20260508212855 27 160 16.1 16.1 0.00 0.00 0.00 51 1008.1
20260508212355 27 160 16.1 16.1 0.00 0.00 0.00 51 1008.2
20260508211855 27 160 16.1 16.1 0.00 0.00 0.00 50 1008.3
20260508211355 27 160 16.1 16.1 0.00 0.00 0.00 50 1008.4
20260508210856 27 160 16.1 16.1 0.00 0.00 0.00 49 1008.6
20260508210355 27 160 16.1 29.0 0.00 0.00 0.00 51 1008.6
20260508205855 27 170 19.3 29.0 0.00 0.00 0.00 50 1008.6
20260508205355 27 170 19.3 29.0 0.00 0.00 0.00 49 1008.8
20260508204355 27 150 16.1 16.1 0.00 0.00 0.00 49 1008.9
20260508203356 27 150 16.1 19.3 0.00 0.00 0.00 49 1009.0
20260508202855 27 150 19.3 19.3 0.00 0.00 0.00 46 1009.0
20260508202355 27 150 19.3 19.3 0.00 0.00 0.00 47 1009.1